Tracking 19794 objects as of 21-Jul-2019
HD Live streaming from Space Station
objects crossing your sky now

COSMOS 1275 DEB

Track COSMOS 1275 DEB now!
10-day predictions


NORAD ID: 42209
Int'l Code: 1981-053TZ
Perigee: 914.2 km
Apogee: 993.5 km
Inclination: 82.9 °
Period: 104.0 minutes
Semi major axis: 7324 km
RCS: Unknown
Launch date: June 4, 1981
Source: Commonwealth of Independent States (former USSR) (CIS)
Launch site: PLESETSK MISSILE AND SPACE COMPLEX (PKMTR)

Note: This is SATELLITE DEBRIS
aabbcc
Your satellite tracking list
Your tracking list is empty




NASA's NSSDC Master Catalog

Two Line Element Set (TLE):
1 42209U 81053TZ  19200.62386753  .00000218  00000-0  17779-3 0  9991
2 42209  82.8805 157.0461 0054114 204.3626 279.0996 13.84866136825375
Source of the keplerian elements: AFSPC